[[{"header":{"parameterUnit":"m.s-1","parameterCategory":1,"la1":30.2992,"la2":30.254,"lo1":-89.0895,"lo2":-89.0443,"dy":0.0025,"dx":0.0025,"nx":19,"ny":19,"refTime":"2026-04-07T03:00:00:Z","depth":0,"parameterNumber":2,"parameterNumberName":"U-component_of_WINDS"},"data":[0,0,0,-4.0828,-4.0832,-4.1035,-4.1035,-4.1301,-4.1303,0,0,0,0,0,0,0,0,0,0,0,-4.0771,-4.0773,-4.0827,-4.0832,-4.1034,-4.1035,-4.13,-4.1303,0,0,0,0,0,0,0,0,0,0,0,-4.077,-4.0772,-4.0774,-4.0833,-4.1034,-4.1035,-4.1299,-4.1145,0,0,0,0,0,0,0,0,0,0,-4.0947,-4.0897,-4.0772,-4.0775,-4.0834,-4.1034,-4.1036,-4.1137,-4.1154,-4.1211,0,-4.1262,0,-4.1287,-4.1321,-4.1322,0,0,0,-4.083,-4.0883,-4.0935,-4.0775,-4.0836,-4.1034,-4.0943,-4.1147,-4.1166,-4.1234,-4.1266,-4.1276,-4.1291,-4.1323,-4.1324,-4.1659,-4.1661,0,0,-4.0819,-4.0809,-4.0921,-4.0948,-4.0916,-4.0936,-4.0949,-4.1158,-4.1192,-4.1267,-4.1282,-4.1296,-4.1325,-4.1327,-4.1657,-4.1659,0,0,0,-4.0788,-4.0801,-4.0848,-4.0937,-4.0973,-4.0942,-4.0957,-4.1183,-4.1199,-4.1285,-4.1299,-4.1326,-4.1329,-4.1656,-4.1658,-4.173,0,0,0,-4.0782,-4.0783,-4.0843,-4.0839,-4.0969,-4.108,-4.0977,-4.1185,-4.1209,-4.1297,-4.1326,-4.1332,-4.1654,-4.1657,-4.1724,-4.1765,0,0,0,-4.0757,-4.078,-4.0811,-4.0838,-4.0924,-4.1077,-4.1105,-4.119,-4.1218,-4.1322,-4.1333,-4.1653,-4.1656,-4.1719,-4.1757,-4.185,0,0,0,-4.0727,-4.0872,-4.0811,-4.0979,-4.0923,-4.112,-4.1104,-4.1252,-4.135,-4.1328,-4.1654,-4.1658,-4.1717,-4.1751,-4.1845,-4.1926,-4.196,0,0,-4.0904,-4.0892,-4.0992,-4.0944,-4.115,-4.109,-4.1307,-4.1407,-4.1427,-4.1581,-4.1589,-4.1726,-4.1756,-4.1849,-4.2152,-4.2178,0,0,0,-4.1045,-4.1116,-4.1173,-4.1266,-4.1346,-4.1418,-4.1486,-4.1523,-4.1654,-4.1503,-4.1786,-4.1804,-4.1859,-4.1899,-4.1921,-4.1969,-4.1676,-4.1676,-4.1675,-4.1279,-4.1297,-4.1463,-4.1505,-4.1596,-4.1665,-4.1741,-4.1803,-4.1794,-4.1861,-4.1906,-4.2088,-4.2134,-4.2151,-4.22,-4.1952,-4.1952,-4.1952,-4.1953,-4.1539,-4.1643,-4.1629,-4.1784,-4.1803,-4.1934,-4.2007,-4.1997,-4.2122,-4.2055,-4.2104,-4.2028,-4.2179,-4.2223,-4.1958,-4.1957,-4.1956,-4.1956,-4.1956,-4.1694,-4.1746,-4.179,-4.1927,-4.2032,-4.2071,-4.2192,-4.2204,-4.2217,-4.2266,-4.2316,-4.2314,-4.2314,-4.2289,-4.229,-4.229,-4.2291,-4.2291,-4.2292,-4.1836,-4.1883,-4.1983,-4.2082,-4.2144,-4.2228,-4.23,-4.2362,-4.2434,-4.2434,-4.2434,-4.2419,-4.2191,-4.2133,-4.2302,-4.23,-4.2299,-4.2298,-4.2297,-4.2091,-4.2036,-4.2191,-4.2253,-4.2371,-4.2474,-4.2489,-4.2615,-4.2668,-4.2728,-4.2703,-4.2532,-4.2522,-4.2504,-4.2456,-4.2698,-4.2698,-4.2698,-4.2698,-4.2221,-4.2217,-4.2379,-4.2478,-4.2577,-4.2607,-4.2782,-4.2842,-4.2894,-4.2928,-4.2895,-4.2833,-4.2815,-4.2815,-4.2791,-4.2746,-4.3057,-4.3057,-4.3057,-4.2378,-4.2385,-4.2531,-4.2581,-4.2675,-4.2755,-4.292,-4.3036,-4.3084,-4.3072,-4.2955,-4.294,-4.284,-4.2806,-4.279,-4.2751,-4.267,0,0]},{"header":{"parameterUnit":"m.s-1","parameterCategory":1,"la1":30.2992,"la2":30.254,"lo1":-89.0895,"lo2":-89.0443,"dy":0.0025,"dx":0.0025,"nx":19,"ny":19,"refTime":"2026-04-07T03:00:00:Z","depth":0,"parameterNumber":3,"parameterNumberName":"V-component_of_WINDS"},"data":[0,0,0,-1.5781,-1.5785,-1.5977,-1.5978,-1.6204,-1.6206,0,0,0,0,0,0,0,0,0,0,0,-1.5713,-1.5714,-1.5781,-1.5786,-1.5977,-1.5978,-1.6204,-1.6206,0,0,0,0,0,0,0,0,0,0,0,-1.5713,-1.5714,-1.5715,-1.5786,-1.5977,-1.5978,-1.6203,-1.6065,0,0,0,0,0,0,0,0,0,0,-1.5883,-1.5808,-1.5714,-1.5715,-1.5787,-1.5976,-1.5978,-1.6059,-1.6074,-1.6109,0,-1.6137,0,-1.6175,-1.622,-1.622,0,0,0,-1.5794,-1.5796,-1.5858,-1.5716,-1.5789,-1.5976,-1.5893,-1.6068,-1.6084,-1.6129,-1.6141,-1.6149,-1.6179,-1.6221,-1.6222,-1.6395,-1.6396,0,0,-1.5784,-1.5742,-1.5846,-1.5868,-1.5837,-1.5887,-1.5899,-1.6078,-1.6088,-1.6141,-1.6155,-1.6182,-1.6222,-1.6224,-1.6395,-1.6396,0,0,0,-1.5747,-1.5734,-1.5792,-1.5858,-1.5894,-1.5892,-1.5906,-1.608,-1.6103,-1.6158,-1.6185,-1.6224,-1.6226,-1.6395,-1.6395,-1.6375,0,0,0,-1.5741,-1.5713,-1.5787,-1.5763,-1.589,-1.599,-1.5904,-1.609,-1.6112,-1.6184,-1.6224,-1.6228,-1.6394,-1.6395,-1.6374,-1.6372,0,0,0,-1.5705,-1.5709,-1.5732,-1.576,-1.5841,-1.5988,-1.6021,-1.6096,-1.6128,-1.6221,-1.6229,-1.6394,-1.6395,-1.6374,-1.6372,-1.6406,0,0,0,-1.5653,-1.5711,-1.5731,-1.5807,-1.5839,-1.5973,-1.602,-1.6122,-1.6199,-1.6225,-1.6394,-1.6395,-1.6374,-1.6372,-1.6405,-1.6427,-1.6432,0,0,-1.5703,-1.5716,-1.5764,-1.5787,-1.5907,-1.5947,-1.6065,-1.6175,-1.6222,-1.6335,-1.634,-1.6375,-1.6372,-1.6406,-1.6474,-1.6477,0,0,0,-1.5765,-1.5799,-1.584,-1.5911,-1.5996,-1.6069,-1.6166,-1.6207,-1.6304,-1.6271,-1.6397,-1.6397,-1.6418,-1.6431,-1.6434,-1.6455,-1.6399,-1.6399,-1.6399,-1.5776,-1.5833,-1.5916,-1.5996,-1.6064,-1.6163,-1.6224,-1.6295,-1.6333,-1.6362,-1.6396,-1.643,-1.6443,-1.6446,-1.6467,-1.6412,-1.6412,-1.6412,-1.6411,-1.5855,-1.5912,-1.596,-1.6058,-1.6118,-1.6201,-1.6298,-1.6322,-1.6408,-1.6409,-1.6431,-1.6428,-1.6448,-1.647,-1.6411,-1.6411,-1.6411,-1.6411,-1.6411,-1.5869,-1.5906,-1.5954,-1.6063,-1.614,-1.6219,-1.6299,-1.6351,-1.64,-1.6422,-1.6463,-1.6464,-1.6471,-1.6438,-1.6438,-1.6438,-1.6438,-1.6438,-1.6438,-1.5864,-1.5919,-1.5981,-1.6076,-1.6128,-1.6203,-1.6303,-1.6356,-1.6428,-1.6459,-1.646,-1.6494,-1.6439,-1.6424,-1.644,-1.644,-1.644,-1.6439,-1.6439,-1.5924,-1.5918,-1.6013,-1.6065,-1.6181,-1.6254,-1.6319,-1.6422,-1.6474,-1.6511,-1.6542,-1.6492,-1.6509,-1.6507,-1.6495,-1.6529,-1.6529,-1.6529,-1.6529,-1.5936,-1.5949,-1.6058,-1.6138,-1.6222,-1.629,-1.6395,-1.6473,-1.6552,-1.6588,-1.659,-1.6579,-1.6574,-1.6594,-1.659,-1.658,-1.6634,-1.6634,-1.6634,-1.5976,-1.6,-1.6079,-1.6157,-1.6251,-1.6331,-1.6431,-1.6522,-1.661,-1.664,-1.6616,-1.6612,-1.6594,-1.6585,-1.6614,-1.6607,-1.6589,0,0]}]]